[[{"header":{"parameterUnit":"m.s-1","parameterCategory":1,"la1":30.2991,"la2":30.254,"lo1":-89.0895,"lo2":-89.0444,"dy":0.0017,"dx":0.0017,"nx":28,"ny":28,"refTime":"2025-08-17T09:00:00:Z","depth":0,"parameterNumber":2,"parameterNumberName":"U-component_of_WINDS"},"data":[0,0,0,0,0,0,0,0,0,0,0,0,0,0,0,0,0,0,0,0,0,0,0,0,0,0,0,0,0,0,0,0,0,0,0,0,0,0,0,0,0,0,0,0,0,0,0,0,0,0,0,0,0,0,0,0,0,0,0.5252,0.5252,0,0.5249,0.5249,0.5249,0.5239,0.5238,0.5238,0.5238,0.5234,0.5234,0.5234,0,0,0,0,0,0,0,0,0,0,0,0,0,0.5246,0.5246,0.5252,0.5252,0.5252,0.5249,0.5249,0.5249,0.5239,0.5238,0.5238,0.5238,0.5234,0.5234,0.5234,0,0,0,0,0,0,0,0,0,0,0,0,0,0.5246,0.5246,0.5252,0.5247,0.5246,0.5249,0.5249,0.5249,0.5239,0.5238,0.5238,0.5238,0.5234,0.5234,0.5234,0.5242,0,0,0.5234,0.5234,0,0,0,0,0,0,0,0,0.5246,0.5247,0.5247,0.5247,0.5246,0.5244,0.5245,0.5247,0.5239,0.5242,0.5238,0.5238,0.5237,0.5237,0.5237,0.5241,0.5241,0.5234,0.5234,0.5234,0.5234,0,0,0,0,0,0,0,0.5246,0.5247,0.5251,0.5247,0.5247,0.5243,0.5243,0.5246,0.5241,0.5241,0.5241,0.524,0.5237,0.5237,0.5237,0.5241,0.5234,0.5234,0.5234,0.5235,0.5249,0.525,0,0,0,0,0,0,0.5247,0.5247,0.5251,0.5251,0.5246,0.5244,0.5243,0.5245,0.5241,0.524,0.5241,0.524,0.5237,0.5237,0.5237,0.5244,0.5234,0.5235,0.5235,0.5249,0.5249,0.525,0,0,0,0,0,0,0.5247,0.5248,0.5251,0.5249,0.5249,0.5244,0.5246,0.5245,0.5245,0.5241,0.524,0.5242,0.5237,0.5237,0.524,0.5244,0.5235,0.5235,0.5249,0.5249,0.525,0.5261,0,0,0,0,0,0,0.5247,0.5248,0.5252,0.5249,0.5249,0.5255,0.5247,0.5245,0.5246,0.5245,0.5242,0.5241,0.5236,0.524,0.524,0.5244,0.5235,0.5248,0.5249,0.5249,0.526,0.5261,0.5263,0,0,0,0,0,0.5247,0.5255,0.5252,0.5253,0.5254,0.5256,0.5256,0.5251,0.5246,0.5249,0.5246,0.5241,0.5244,0.524,0.5241,0.5245,0.5248,0.5249,0.5249,0.5259,0.5261,0.5263,0,0,0,0,0,0,0.5259,0.5255,0.5251,0.5259,0.5258,0.5254,0.5258,0.5253,0.5253,0.5252,0.5246,0.5245,0.5249,0.5247,0.5244,0.5251,0.5245,0.5246,0.5252,0.5254,0.5255,0.5256,0.5235,0,0,0,0,0,0.5262,0.5265,0.5261,0.5268,0.5267,0.5263,0.5264,0.526,0.5258,0.5258,0.5255,0.5253,0.5253,0.5253,0.5254,0.5259,0.5258,0.5262,0.5264,0.5265,0.5265,0.5267,0.5268,0.5252,0.5252,0.5252,0,0,0.5269,0.5267,0.527,0.527,0.5269,0.5271,0.5262,0.5265,0.5266,0.5258,0.5261,0.5258,0.5256,0.526,0.5262,0.5259,0.5269,0.5266,0.5267,0.5267,0.5268,0.5269,0.5271,0.5253,0.5252,0.5252,0,0,0.5283,0.5283,0.5287,0.5286,0.5284,0.5281,0.5282,0.5278,0.5276,0.5279,0.5273,0.5273,0.5274,0.5272,0.5271,0.5282,0.5277,0.5282,0.529,0.5291,0.5292,0.5293,0.5296,0.5297,0.5283,0.5283,0.5283,0,0.5292,0.5296,0.529,0.5293,0.5293,0.5285,0.5289,0.5288,0.5286,0.5286,0.5282,0.5282,0.528,0.5283,0.5285,0.5285,0.5285,0.5283,0.5293,0.5294,0.5295,0.5297,0.5298,0.5284,0.5284,0.5284,0.5283,0,0.5306,0.5308,0.5312,0.531,0.5311,0.5314,0.5308,0.5309,0.5305,0.5301,0.5303,0.53,0.5299,0.5299,0.5295,0.5301,0.5299,0.5294,0.5288,0.5297,0.5299,0.53,0.5285,0.5284,0.5284,0.5284,0,0,0.5328,0.5322,0.5324,0.5322,0.5319,0.532,0.5322,0.5321,0.5321,0.5319,0.532,0.532,0.5315,0.5314,0.531,0.5311,0.5318,0.5306,0.5306,0.5308,0.5323,0.5326,0.5327,0.5315,0.5315,0.5315,0.5323,0,0.534,0.5345,0.5339,0.5344,0.5345,0.5337,0.5339,0.5336,0.5333,0.5332,0.5328,0.5328,0.5322,0.5321,0.5322,0.5317,0.5321,0.5317,0.5314,0.5315,0.5315,0.5329,0.5332,0.534,0.5324,0.5324,0.5324,0,0.5356,0.5355,0.536,0.5354,0.5355,0.5356,0.5354,0.5354,0.535,0.5347,0.5345,0.534,0.534,0.5334,0.5334,0.5331,0.5329,0.5327,0.5327,0.5326,0.532,0.5328,0.5342,0.5343,0.5325,0.5325,0.5325,0,0.537,0.537,0.5372,0.5371,0.5365,0.5366,0.5364,0.536,0.5359,0.5356,0.5355,0.5353,0.5351,0.5349,0.5342,0.5339,0.5342,0.5336,0.5339,0.5339,0.534,0.534,0.5354,0.534,0.534,0.534,0.534,0,0.5384,0.5387,0.5378,0.538,0.5383,0.5376,0.5378,0.5375,0.5371,0.5371,0.5364,0.5363,0.5355,0.5353,0.5348,0.5348,0.5347,0.5344,0.5343,0.5345,0.5345,0.5344,0.5343,0.534,0.534,0.534,0.534,0,0.5401,0.5395,0.5397,0.5391,0.5389,0.5391,0.5386,0.5386,0.5382,0.5381,0.5381,0.5373,0.5371,0.5364,0.536,0.5356,0.5358,0.5355,0.5359,0.5358,0.5361,0.5361,0.5374,0.5375,0.5361,0.5361,0.5362,0,0.541,0.5412,0.5406,0.5405,0.5403,0.5402,0.5401,0.5394,0.5392,0.5387,0.5388,0.5385,0.5383,0.5379,0.5373,0.5369,0.5366,0.5371,0.5365,0.5367,0.5365,0.5365,0.5364,0.5372,0.5372,0.5373,0.5373,0,0.5426,0.5423,0.5422,0.5419,0.5418,0.5415,0.5412,0.5412,0.5403,0.5402,0.54,0.5398,0.5393,0.539,0.5385,0.5381,0.5375,0.5374,0.5375,0.5377,0.5379,0.5377,0.5362,0.5374,0.5374,0.5374,0.5374,0.5374,0.5439,0.544,0.5435,0.5433,0.543,0.5427,0.5427,0.5422,0.542,0.5416,0.5411,0.5409,0.5403,0.5396,0.5393,0.539,0.5387,0.5388,0.5388,0.5388,0.5389,0.5379,0.5389,0.5389,0.5389,0.5389,0.5389,0,0.5454,0.545,0.5449,0.5445,0.5443,0.5437,0.5433,0.5432,0.543,0.5426,0.5423,0.5419,0.5416,0.5409,0.5404,0.5403,0.54,0.5402,0.5402,0.5401,0.5392,0.5392,0.5405,0.5405,0.5405,0.5405,0.5405,0.5405,0.5462,0.5463,0.5459,0.5457,0.5453,0.5451,0.5449,0.5446,0.5442,0.5438,0.5435,0.5431,0.5425,0.542,0.5416,0.5413,0.5412,0.5415,0.5411,0.5403,0.5402,0.54,0.54,0.5414,0.5414,0.542,0.542,0.542]},{"header":{"parameterUnit":"m.s-1","parameterCategory":1,"la1":30.2991,"la2":30.254,"lo1":-89.0895,"lo2":-89.0444,"dy":0.0017,"dx":0.0017,"nx":28,"ny":28,"refTime":"2025-08-17T09:00:00:Z","depth":0,"parameterNumber":3,"parameterNumberName":"V-component_of_WINDS"},"data":[0,0,0,0,0,0,0,0,0,0,0,0,0,0,0,0,0,0,0,0,0,0,0,0,0,0,0,0,0,0,0,0,0,0,0,0,0,0,0,0,0,0,0,0,0,0,0,0,0,0,0,0,0,0,0,0,0,0,-0.1209,-0.121,0,-0.1297,-0.1298,-0.1299,-0.1358,-0.1359,-0.1359,-0.1359,-0.1454,-0.1456,-0.1458,0,0,0,0,0,0,0,0,0,0,0,0,0,-0.1097,-0.1099,-0.1209,-0.121,-0.1211,-0.1297,-0.1298,-0.1299,-0.1358,-0.1359,-0.1359,-0.136,-0.1453,-0.1456,-0.1458,0,0,0,0,0,0,0,0,0,0,0,0,0,-0.1161,-0.1099,-0.1209,-0.1251,-0.1255,-0.1297,-0.1298,-0.13,-0.1358,-0.1359,-0.1359,-0.136,-0.1452,-0.1455,-0.1459,-0.1466,0,0,-0.1468,-0.147,0,0,0,0,0,0,0,0,-0.1158,-0.1165,-0.1243,-0.1248,-0.1253,-0.1317,-0.1293,-0.1356,-0.1358,-0.1319,-0.1359,-0.136,-0.1408,-0.1415,-0.143,-0.1471,-0.1475,-0.1469,-0.1471,-0.1472,-0.1473,0,0,0,0,0,0,0,-0.1153,-0.1162,-0.1244,-0.1244,-0.125,-0.1267,-0.1277,-0.1305,-0.1359,-0.1323,-0.1327,-0.1336,-0.1411,-0.1427,-0.1433,-0.1476,-0.1469,-0.1471,-0.1473,-0.1475,-0.1531,-0.153,0,0,0,0,0,0,-0.1141,-0.1158,-0.1241,-0.1246,-0.1206,-0.1268,-0.1279,-0.1296,-0.1359,-0.1369,-0.1336,-0.1339,-0.1421,-0.1429,-0.1437,-0.1452,-0.1472,-0.1475,-0.1477,-0.1531,-0.1531,-0.153,0,0,0,0,0,0,-0.1139,-0.1148,-0.1238,-0.1203,-0.1216,-0.127,-0.1288,-0.1297,-0.1314,-0.1369,-0.138,-0.1342,-0.1422,-0.1432,-0.1459,-0.1456,-0.1476,-0.1479,-0.1532,-0.1531,-0.153,-0.148,0,0,0,0,0,0,-0.1135,-0.1147,-0.1149,-0.1203,-0.1218,-0.1256,-0.1288,-0.1299,-0.1319,-0.1323,-0.1378,-0.1387,-0.1423,-0.1454,-0.1462,-0.146,-0.1482,-0.1532,-0.1531,-0.1531,-0.1482,-0.1478,-0.1474,0,0,0,0,0,-0.1131,-0.1132,-0.1149,-0.1158,-0.1221,-0.1256,-0.1265,-0.1305,-0.1318,-0.1322,-0.1358,-0.1386,-0.1455,-0.1456,-0.1466,-0.1465,-0.1533,-0.1532,-0.1531,-0.1484,-0.1479,-0.1474,0,0,0,0,0,0,-0.1076,-0.1139,-0.1159,-0.1177,-0.121,-0.1266,-0.1271,-0.1297,-0.1329,-0.1332,-0.1382,-0.1394,-0.1416,-0.1444,-0.1444,-0.1478,-0.1497,-0.1498,-0.1459,-0.1454,-0.145,-0.1443,-0.1485,0,0,0,0,0,-0.1066,-0.1088,-0.1142,-0.1153,-0.1169,-0.1217,-0.1234,-0.1262,-0.1299,-0.1314,-0.1352,-0.1389,-0.142,-0.1438,-0.1469,-0.1487,-0.1501,-0.1492,-0.1487,-0.1484,-0.1484,-0.1498,-0.1495,-0.1527,-0.1527,-0.1527,0,0,-0.1046,-0.1083,-0.1094,-0.1143,-0.1172,-0.1195,-0.1229,-0.1251,-0.1269,-0.1318,-0.1346,-0.1375,-0.142,-0.1443,-0.1455,-0.1466,-0.1478,-0.1482,-0.1479,-0.1481,-0.1496,-0.1493,-0.1491,-0.1526,-0.1526,-0.1527,0,0,-0.102,-0.105,-0.1062,-0.1092,-0.1136,-0.1168,-0.1171,-0.1223,-0.1244,-0.1273,-0.131,-0.1334,-0.1384,-0.1415,-0.1437,-0.1426,-0.1454,-0.1435,-0.1413,-0.1426,-0.1424,-0.1422,-0.1419,-0.1417,-0.1435,-0.1435,-0.1435,0,-0.099,-0.1024,-0.1066,-0.1087,-0.1108,-0.1153,-0.1168,-0.1194,-0.1247,-0.1262,-0.1273,-0.1339,-0.1372,-0.1404,-0.1401,-0.1417,-0.1424,-0.1429,-0.142,-0.1419,-0.1418,-0.1416,-0.1414,-0.1432,-0.1433,-0.1433,-0.1433,0,-0.0985,-0.1009,-0.1014,-0.1063,-0.1085,-0.1102,-0.1149,-0.1167,-0.1194,-0.1226,-0.1256,-0.1297,-0.1338,-0.1348,-0.1374,-0.1384,-0.139,-0.141,-0.1431,-0.1411,-0.141,-0.141,-0.1429,-0.143,-0.143,-0.1431,0,0,-0.0926,-0.0999,-0.1,-0.1024,-0.1077,-0.1097,-0.1118,-0.1157,-0.1172,-0.1207,-0.1227,-0.127,-0.129,-0.1315,-0.1346,-0.1357,-0.1348,-0.1377,-0.1379,-0.1371,-0.1363,-0.1348,-0.1346,-0.1367,-0.1367,-0.1367,-0.136,0,-0.091,-0.0947,-0.0987,-0.1011,-0.1035,-0.1079,-0.1098,-0.1133,-0.1164,-0.1191,-0.1226,-0.1256,-0.1279,-0.1295,-0.1308,-0.1346,-0.1347,-0.1347,-0.1388,-0.1388,-0.1375,-0.1346,-0.1329,-0.132,-0.136,-0.136,-0.136,0,-0.0894,-0.0927,-0.0953,-0.1006,-0.1017,-0.1033,-0.1073,-0.1097,-0.114,-0.1162,-0.1191,-0.1224,-0.1251,-0.1269,-0.1308,-0.1307,-0.1326,-0.1348,-0.1348,-0.1354,-0.1373,-0.1351,-0.1319,-0.1317,-0.1359,-0.1359,-0.1359,0,-0.085,-0.0901,-0.0924,-0.0942,-0.1004,-0.1014,-0.1041,-0.1084,-0.1105,-0.1141,-0.1156,-0.1195,-0.1216,-0.1247,-0.1291,-0.13,-0.1326,-0.1347,-0.1347,-0.1345,-0.135,-0.1349,-0.1321,-0.1361,-0.1361,-0.1361,-0.1361,0,-0.0827,-0.0842,-0.0905,-0.0919,-0.0938,-0.0984,-0.1003,-0.1033,-0.1072,-0.1094,-0.1136,-0.1156,-0.1213,-0.1241,-0.1276,-0.1304,-0.1313,-0.1333,-0.1342,-0.133,-0.1327,-0.1343,-0.1345,-0.1361,-0.1361,-0.1361,-0.1361,0,-0.0781,-0.0823,-0.0851,-0.0907,-0.0922,-0.0933,-0.0983,-0.1,-0.1034,-0.1062,-0.1071,-0.1125,-0.1161,-0.1208,-0.1258,-0.1282,-0.1306,-0.132,-0.1291,-0.1297,-0.1294,-0.1294,-0.1275,-0.1276,-0.1315,-0.1314,-0.1314,0,-0.0763,-0.0776,-0.0833,-0.0851,-0.0876,-0.0903,-0.0926,-0.0973,-0.0995,-0.1046,-0.1057,-0.1095,-0.1129,-0.1184,-0.1229,-0.1269,-0.1285,-0.1276,-0.1291,-0.1279,-0.1286,-0.1285,-0.1287,-0.1272,-0.1271,-0.127,-0.127,0,-0.0728,-0.0749,-0.0779,-0.0816,-0.0841,-0.0874,-0.0908,-0.0921,-0.0976,-0.0999,-0.1035,-0.1061,-0.1113,-0.1152,-0.1198,-0.1228,-0.1259,-0.1265,-0.1267,-0.1254,-0.1238,-0.1248,-0.1281,-0.1265,-0.1265,-0.1266,-0.1266,-0.1266,-0.0697,-0.0711,-0.0753,-0.0786,-0.0817,-0.0848,-0.0867,-0.0904,-0.0934,-0.0979,-0.1006,-0.1042,-0.1087,-0.1152,-0.1181,-0.1211,-0.1223,-0.1226,-0.1227,-0.1227,-0.1223,-0.1232,-0.122,-0.122,-0.122,-0.122,-0.1221,0,-0.0665,-0.0695,-0.0724,-0.0771,-0.0797,-0.0823,-0.0863,-0.0883,-0.0914,-0.0953,-0.0985,-0.1028,-0.1067,-0.1115,-0.1157,-0.1173,-0.1188,-0.1182,-0.1182,-0.1189,-0.121,-0.1204,-0.1169,-0.1169,-0.1169,-0.1169,-0.1169,-0.1169,-0.0651,-0.0677,-0.0703,-0.0745,-0.0776,-0.081,-0.0831,-0.0861,-0.0892,-0.0938,-0.097,-0.1001,-0.1045,-0.1091,-0.1128,-0.1142,-0.1156,-0.1146,-0.1164,-0.1183,-0.1187,-0.1191,-0.1186,-0.1148,-0.1148,-0.1141,-0.1141,-0.1141]}]]